Cloud_Cover
0 0 0 5 66 1 5 5 0 0 0 0 4 0 98 58 49 98 2 55 5 72 93 19 97 100 48 75 21 92 100 24 60 100 5 31 100 100 100 100 100 100 100
0 0 0 8 1 0 0 0 0 0 0 0 0 10 10 32 7 49 100 84 0 61 88 7 14 34 70 5 5 4 4 5 6 15 5 1 24 53 58 92 100 99 93
0 0 0 0 0 0 0 0 0 0 0 0 0 1 2 18 32 47 68 72 0 0 0 0 5 42 49 3 0 14 5 5 8 88 56 49 10 100 96 100 100 100 76
1 0 0 0 0 0 0 0 1 0 0 0 0 0 0 0 0 0 27 99 47 0 0 0 0 5 5 2 3 1 34 63 41 5 94 83 69 97 100 100 84 52 79
5 5 1 3 1 12 8 92 100 5 1 0 0 0 0 0 23 27 50 0 0 0 0 0 0 0 0 0 1 5 54 6 5 5 70 96 84 100 100 100 98 57 99
0 5 48 62 30 3 3 8 100 100 48 13 30 4 2 0 0 0 0 0 0 0 0 0 0 0 0 0 2 5 12 4 5 5 30 62 100 100 100 100 96 100 100
1 0 0 3 19 22 4 5 6 57 31 99 72 98 26 2 2 0 0 0 2 100 98 38 0 0 0 0 0 3 0 2 4 4 3 5 9 84 99 94 92 100 100
0 3 0 0 1 29 37 14 27 5 5 90 98 80 100 64 27 5 6 6 4 5 3 0 0 0 0 0 0 0 0 0 0 0 5 5 9 57 51 12 100 100 100
3 2 0 0 0 0 0 3 5 5 5 6 97 100 100 100 100 100 59 76 46 30 16 5 0 2 5 4 15 22 10 0 0 4 0 0 0 12 68 10 92 100 100
0 0 0 0 0 0 0 0 0 0 0 4 5 5 19 55 88 100 100 6 8 15 8 8 5 5 26 78 42 72 9 4 3 7 8 5 4 1 0 57 78 100 100
0 0 0 0 0 0 0 0 0 0 0 0 0 0 1 35 16 22 27 75 91 8 54 50 8 69 4 7 14 5 5 2 2 5 46 6 5 14 3 1 15 87 87
0 0 0 0 0 0 0 0 0 0 0 0 0 0 0 0 0 0 5 5 5 5 5 5 5 4 16 74 28 97 100 97 95 8 5 43 40 3 6 5 4 0 12
0 0 0 0 0 0 0 0 0 0 0 0 0 0 0 0 0 0 0 0 1 4 2 0 2 1 8 92 100 100 100 100 100 100 100 92 14 5 3 5 5 3 0
0 0 0 0 0 0 0 0 0 0 0 0 0 0 0 0 0 0 0 0 0 0 0 0 0 0 76 100 100 100 100 100 100 100 100 100 99 32 5 5 29 2 1
0 0 0 0 0 0 0 0 0 0 0 0 0 0 0 0 0 0 0 0 0 17 0 0 0 0 0 2 26 99 100 100 100 71 100 100 100 100 6 5 2 0 0
0 0 0 0 0 0 0 0 0 0 0 0 0 0 0 0 0 0 0 0 0 0 0 0 0 0 0 1 3 4 27 95 94 93 100 94 100 27 22 5 2 2 0
0 0 0 0 0 0 0 0 0 0 0 0 0 0 0 0 0 0 0 0 0 0 0 0 0 0 0 0 0 0 1 0 0 2 5 4 8 4 4 3 0 1 0
0 38 0 0 0 0 0 0 0 0 0 0 0 0 0 0 8 0 0 0 0 0 0 0 0 0 1 0 0 0 0 0 0 0 0 0 0 0 0 0 0 0 0
2 3 0 0 0 0 0 0 0 0 0 0 0 0 0 0 0 0 0 0 0 3 5 0 0 0 0 0 0 0 0 0 0 0 0 0 0 0 0 0 0 0 0
5 1 0 0 0 0 0 0 0 0 0 0 0 0 0 0 0 0 2 5 4 4 5 5 1 1 0 0 0 0 0 0 0 0 0 0 0 0 0 0 0 1 0
10 2 4 2 2 51 100 100 39 3 2 2 2 3 5 7 2 0 54 100 87 17 52 5 3 6 6 16 2 0 1 3 2 5 2 1 2 0 0 29 0 15 0
0 0 26 94 100 100 100 100 100 100 5 5 0 0 13 84 21 88 100 93 100 7 0 6 88 86 50 45 41 98 51 51 99 19 52 100 73 20 9 0 5 0 0
0 2 5 100 100 100 100 100 100 100 5 0 1 5 58 58 96 100 63 5 0 4 4 6 20 66 95 100 100 74 5 37 71 100 96 99 44 10 69 95 3 0 0
0 0 2 100 100 100 100 100 100 100 99 5 5 79 70 28 75 86 22 18 92 93 100 82 83 98 48 5 8 82 13 12 41 54 97 6 1 0 0 0 0 0 0
0 0 0 52 100 100 100 100 100 100 100 98 72 76 89 94 71 99 100 100 1 2 1 40 100 84 0 0 11 0 0 0 0 0 0 0 0 0 0 0 0 0 0
0 1 30 100 100 100 100 100 100 100 37 57 100 100 100 100 100 100 100 4 0 0 0 0 1 0 10 75 9 0 0 0 4 0 0 0 0 0 0 0 0 0 0